Terug naar catalogus

TRANSIT 11 DEB

ActiefPO
NORAD 11991·DEBRIS·🇺🇸 United States

Gelanceerd Jan 28, 1966 vanaf Vandenberg Space Force Base

Loading…

Volgende Passages (komende 24 uur)

TLE

VersSource: Space-Track

Epoch: Sep 14, 2026, 04:38 UTC

1 11991U 66005H   26257.19332855  .00000418  00000-0  31911-3 0  9997
2 11991  90.1631 343.9999 0176222  68.7695 320.9383 13.84976247 33724

Volg TRANSIT 11 DEB in realtime met AllMySat

Download on the App Store